TimeMST,TemperatureF,Dew PointF,Humidity,Sea Level PressureIn,VisibilityMPH,Wind Direction,Wind SpeedMPH,Gust SpeedMPH,PrecipitationIn,Events,Conditions,WindDirDegrees,DateUTC
12:15 AM,23.9,0.9,37,30.15,10.0,Calm,Calm,-,N/A,,Scattered Clouds,0,2013-01-07 07:15:00
12:35 AM,23.2,1.6,39,30.15,10.0,Calm,Calm,-,N/A,,Scattered Clouds,0,2013-01-07 07:35:00
12:55 AM,21.4,2.3,44,30.14,10.0,NNW,4.6,-,N/A,,Clear,330,2013-01-07 07:55:00
1:15 AM,22.6,2.8,43,30.15,10.0,NNW,6.9,-,N/A,,Clear,340,2013-01-07 08:15:00
1:35 AM,22.5,3.0,43,30.15,10.0,NNW,13.8,20.7,N/A,,Clear,340,2013-01-07 08:35:00
1:55 AM,21.9,3.2,45,30.15,10.0,NNW,17.3,-,N/A,,Clear,340,2013-01-07 08:55:00
2:15 AM,21.7,3.0,45,30.15,10.0,NNW,11.5,17.3,N/A,,Clear,330,2013-01-07 09:15:00
2:35 AM,20.8,3.0,46,30.15,10.0,NNW,11.5,-,N/A,,Clear,330,2013-01-07 09:35:00
2:55 AM,20.3,2.8,47,30.15,10.0,NNW,13.8,-,N/A,,Clear,330,2013-01-07 09:55:00
3:15 AM,20.7,2.3,45,30.14,10.0,NNW,15.0,18.4,N/A,,Clear,330,2013-01-07 10:15:00
3:35 AM,20.1,2.5,46,30.15,10.0,NNW,15.0,19.6,N/A,,Clear,330,2013-01-07 10:35:00
3:55 AM,20.7,2.3,45,30.15,10.0,NNW,13.8,18.4,N/A,,Clear,330,2013-01-07 10:55:00
4:15 AM,20.1,2.3,46,30.14,10.0,NNW,13.8,-,N/A,,Clear,330,2013-01-07 11:15:00
4:35 AM,19.2,2.1,47,30.15,10.0,NNW,12.7,19.6,N/A,,Clear,330,2013-01-07 11:35:00
4:55 AM,19.4,2.1,47,30.15,10.0,NW,13.8,-,N/A,,Clear,320,2013-01-07 11:55:00
5:15 AM,19.0,1.6,47,30.15,10.0,NNW,10.4,-,N/A,,Clear,330,2013-01-07 12:15:00
5:35 AM,19.8,1.4,45,30.15,10.0,NW,9.2,-,N/A,,Clear,320,2013-01-07 12:35:00
5:55 AM,18.9,1.6,47,30.15,10.0,NW,9.2,-,N/A,,Clear,320,2013-01-07 12:55:00
6:15 AM,18.0,1.2,48,30.15,10.0,NW,9.2,-,N/A,,Clear,310,2013-01-07 13:15:00
6:35 AM,18.1,1.0,47,30.15,10.0,NW,9.2,-,N/A,,Clear,320,2013-01-07 13:35:00
6:55 AM,17.4,0.7,48,30.15,10.0,NNW,11.5,16.1,N/A,,Clear,330,2013-01-07 13:55:00
7:15 AM,16.7,0.9,50,30.16,10.0,NW,5.8,-,N/A,,Clear,310,2013-01-07 14:15:00
7:35 AM,16.9,1.2,50,30.17,10.0,NW,6.9,-,N/A,,Clear,310,2013-01-07 14:35:00
7:55 AM,16.2,0.7,51,30.17,10.0,WNW,8.1,-,N/A,,Clear,300,2013-01-07 14:55:00
8:15 AM,16.7,0.9,50,30.19,10.0,WNW,6.9,-,N/A,,Clear,300,2013-01-07 15:15:00
8:35 AM,17.8,0.9,48,30.18,10.0,NW,4.6,-,N/A,,Clear,310,2013-01-07 15:35:00
8:55 AM,19.6,1.9,46,30.18,10.0,WNW,8.1,-,N/A,,Clear,290,2013-01-07 15:55:00
9:15 AM,19.8,0.5,43,30.18,10.0,NW,6.9,-,N/A,,Clear,310,2013-01-07 16:15:00
9:35 AM,19.0,0.5,44,30.19,10.0,North,4.6,-,N/A,,Clear,350,2013-01-07 16:35:00
9:55 AM,22.6,1.4,40,30.18,10.0,NW,5.8,-,N/A,,Clear,320,2013-01-07 16:55:00
10:15 AM,23.7,1.4,38,30.17,10.0,NNW,6.9,-,N/A,,Clear,330,2013-01-07 17:15:00
10:35 AM,24.6,2.1,38,30.17,10.0,WNW,4.6,-,N/A,,Clear,300,2013-01-07 17:35:00
10:55 AM,25.7,1.4,35,30.16,10.0,NNW,5.8,-,N/A,,Clear,330,2013-01-07 17:55:00
11:15 AM,27.0,3.2,36,30.15,10.0,Calm,Calm,-,N/A,,Clear,0,2013-01-07 18:15:00
11:35 AM,28.6,2.8,33,30.12,10.0,Calm,Calm,-,N/A,,Clear,0,2013-01-07 18:35:00
12:15 PM,32.2,2.3,28,30.09,10.0,Calm,Calm,-,N/A,,Clear,0,2013-01-07 19:15:00
12:35 PM,34.3,2.3,26,30.07,10.0,Calm,Calm,-,N/A,,Clear,0,2013-01-07 19:35:00
12:55 PM,34.9,2.5,26,30.06,10.0,NNW,3.5,-,N/A,,Clear,330,2013-01-07 19:55:00
1:15 PM,36.9,3.0,24,30.06,10.0,Calm,Calm,-,N/A,,Clear,0,2013-01-07 20:15:00
1:35 PM,37.9,3.0,23,30.05,10.0,Calm,Calm,-,N/A,,Clear,0,2013-01-07 20:35:00
1:55 PM,39.9,2.3,21,30.04,7.0,Calm,Calm,-,N/A,,Clear,0,2013-01-07 20:55:00
2:15 PM,40.6,2.7,21,30.04,10.0,Calm,Calm,-,N/A,,Clear,0,2013-01-07 21:15:00
2:35 PM,41.4,2.3,20,30.03,10.0,West,3.5,-,N/A,,Clear,280,2013-01-07 21:35:00
2:55 PM,42.4,3.6,20,30.02,10.0,WNW,4.6,-,N/A,,Clear,300,2013-01-07 21:55:00
3:15 PM,43.2,0.1,17,30.02,10.0,Calm,Calm,-,N/A,,Clear,0,2013-01-07 22:15:00
3:35 PM,42.6,3.7,20,30.02,10.0,Calm,Calm,-,N/A,,Clear,0,2013-01-07 22:35:00
4:15 PM,41.2,4.1,21,30.01,10.0,Calm,Calm,-,N/A,,Clear,0,2013-01-07 23:15:00
4:35 PM,35.8,4.5,27,30.00,10.0,SSW,3.5,-,N/A,,Clear,200,2013-01-07 23:35:00
4:55 PM,34.3,4.3,28,30.00,10.0,Calm,Calm,-,N/A,,Clear,0,2013-01-07 23:55:00
5:15 PM,32.7,2.1,27,30.00,10.0,Calm,Calm,-,N/A,,Clear,0,2013-01-08 00:15:00
5:35 PM,33.4,0.5,25,30.00,10.0,Calm,Calm,-,N/A,,Clear,0,2013-01-08 00:35:00
5:55 PM,28.6,1.2,31,30.02,10.0,Calm,Calm,-,N/A,,Clear,0,2013-01-08 00:55:00
6:15 PM,29.1,1.9,31,30.03,10.0,WSW,3.5,-,N/A,,Clear,250,2013-01-08 01:15:00
6:35 PM,27.7,2.3,34,30.03,10.0,WSW,4.6,-,N/A,,Clear,250,2013-01-08 01:35:00
6:55 PM,30.6,1.2,29,30.03,10.0,Calm,Calm,-,N/A,,Clear,0,2013-01-08 01:55:00
7:15 PM,25.2,1.6,36,30.03,10.0,Calm,Calm,-,N/A,,Clear,0,2013-01-08 02:15:00
7:35 PM,27.0,2.7,35,30.04,10.0,Calm,Calm,-,N/A,,Clear,0,2013-01-08 02:35:00
7:55 PM,27.7,-0.2,30,30.03,10.0,West,3.5,-,N/A,,Clear,270,2013-01-08 02:55:00
8:35 PM,26.1,-0.4,32,30.03,10.0,WNW,4.6,-,N/A,,Clear,290,2013-01-08 03:35:00
8:55 PM,24.8,-0.0,34,30.02,10.0,WSW,3.5,-,N/A,,Clear,250,2013-01-08 03:55:00
9:15 PM,21.7,-0.2,38,30.02,10.0,Calm,Calm,-,N/A,,Clear,0,2013-01-08 04:15:00
9:35 PM,23.5,3.6,42,30.02,10.0,NNW,5.8,-,N/A,,Clear,330,2013-01-08 04:35:00
9:55 PM,26.2,3.2,37,30.02,10.0,NNW,12.7,-,N/A,,Clear,330,2013-01-08 04:55:00
10:15 PM,27.3,2.3,34,30.02,10.0,NNW,12.7,-,N/A,,Clear,330,2013-01-08 05:15:00
10:35 PM,26.6,2.1,35,30.02,10.0,NNW,9.2,-,N/A,,Clear,340,2013-01-08 05:35:00
10:55 PM,27.0,1.4,33,30.03,10.0,NNW,9.2,-,N/A,,Clear,330,2013-01-08 05:55:00
11:15 PM,24.4,1.9,38,30.04,10.0,NW,6.9,-,N/A,,Clear,310,2013-01-08 06:15:00
11:35 PM,26.1,0.3,33,30.02,10.0,NNW,12.7,-,N/A,,Clear,330,2013-01-08 06:35:00
11:55 PM,26.2,-0.2,32,30.02,10.0,NNW,11.5,-,N/A,,Clear,330,2013-01-08 06:55:00